East Haven, CT

6:36 AM EST on February 26, 2017 (GMT -0500)
Tweed-New Haven

Weather History for KHVN - February, 2013

Change the Weather History Date:

Friday, February 15, 2013

  Actual Average Record
Temperature  
Mean Temperature 34 °F -  
Max Temperature 45 °F 37 °F 43 °F (2017)
Min Temperature 24 °F 24 °F 1 °F (2016)
Degree Days  
Heating Degree Days 30    
Moisture  
Dew Point 27 °F    
Average Humidity 84    
Maximum Humidity 100    
Minimum Humidity 63    
Precipitation  
Precipitation 0.00 in - - ()
Sea Level Pressure  
Sea Level Pressure 29.99 in    
Wind  
Wind Speed 1 mph (South)    
Max Wind Speed 8 mph    
Max Gust Speed -    
Visibility 4 miles    
Events Fog    
Averages and records for this station are not official NWS values.
T = Trace of Precipitation, MM = Missing Value Source: NWS Daily Summary

Daily Weather History Graph

Daily Weather History Graph

Search for Another Location

Airport or City:

Trip Planner

Search our weather history database for the weather conditions in past years. The results will help you decide how hot, cold, wet, or windy it might be!

Date:

Astronomy

Feb. 15, 2013 Rise Set
Actual Time 6:46 AM EST 5:25 PM EST
Civil Twilight 6:17 AM EST 5:54 PM EST
Nautical Twilight 5:45 AM EST 6:26 PM EST
Astronomical Twilight 5:13 AM EST 6:58 PM EST
Moon 9:16 AM EST (2/15) 11:28 PM EST (2/15)
Length of Visible Light 11h 36m
Length of Day
10h 39m
Waxing Crescent, 30% of the Moon is Illuminated
Feb 15
Waxing Crescent
Feb 17
First Quarter
Feb 25
Full
Mar 4
Last Quarter
Mar 11
New

Hourly Weather History & Observations

Time (EST) Temp. Windchill Dew Point Humidity Pressure Visibility Wind Dir Wind Speed Gust Speed Precip Events Conditions
12:53 AM 30.0 °F - 26.1 °F 85% 30.01 in 5.0 mi Calm Calm - N/A   Clear
1:53 AM 28.9 °F - 24.1 °F 82% 30.00 in 4.0 mi Calm Calm - N/A   Haze
2:14 AM 26.6 °F - 24.8 °F 93% 30.00 in 2.0 mi Calm Calm - N/A   Mostly Cloudy
2:17 AM 26.6 °F - 24.8 °F 93% 30.00 in 0.8 mi Calm Calm - N/A   Mostly Cloudy
2:35 AM 28.4 °F - 24.8 °F 86% 29.99 in 2.0 mi Calm Calm - N/A   Overcast
2:43 AM 28.4 °F - 24.8 °F 86% 30.00 in 3.0 mi Calm Calm - N/A   Mostly Cloudy
2:53 AM 28.0 °F - 25.0 °F 88% 30.00 in 2.0 mi Calm Calm - N/A   Mostly Cloudy
3:01 AM 26.6 °F - 24.8 °F 93% 29.99 in 3.0 mi Calm Calm - N/A   Mostly Cloudy
3:19 AM 28.4 °F - 24.8 °F 86% 29.99 in 1.0 mi Calm Calm - N/A   Overcast
3:21 AM 28.4 °F - 24.8 °F 86% 29.99 in 0.8 mi Calm Calm - N/A   Overcast
3:30 AM 26.6 °F - 24.8 °F 93% 29.99 in 0.2 mi Calm Calm - N/A Fog Light Freezing Fog
3:36 AM 26.6 °F - 21.2 °F 80% 29.99 in 0.2 mi Calm Calm - N/A Fog Light Freezing Fog
3:53 AM 27.0 °F 23.0 °F 24.1 °F 89% 29.99 in 0.5 mi North 3.5 mph - N/A Fog Light Freezing Fog
4:01 AM 28.4 °F - 24.8 °F 86% 30.00 in 1.8 mi Calm Calm - N/A   Overcast
4:08 AM 28.4 °F - 24.8 °F 86% 30.00 in 2.5 mi Calm Calm - N/A   Mostly Cloudy
4:24 AM 26.6 °F - 24.8 °F 93% 30.00 in 3.0 mi Calm Calm - N/A   Scattered Clouds
4:27 AM 26.6 °F - 23.0 °F 86% 30.00 in 1.2 mi Calm Calm - N/A   Scattered Clouds
4:29 AM 26.6 °F - 24.8 °F 93% 30.00 in 0.5 mi Calm Calm - N/A Fog Light Freezing Fog
4:37 AM 26.6 °F - 24.8 °F 93% 30.00 in 0.2 mi Calm Calm - N/A Fog Light Freezing Fog
4:43 AM 24.8 °F - 23.0 °F 93% 30.00 in 1.0 mi Calm Calm - N/A   Mist
4:45 AM 26.6 °F - 23.0 °F 86% 30.00 in 2.0 mi Calm Calm - N/A   Scattered Clouds
4:53 AM 28.9 °F 25.2 °F 25.0 °F 85% 30.01 in 2.5 mi South 3.5 mph - N/A   Scattered Clouds
5:33 AM 24.8 °F - 21.2 °F 86% 30.01 in 3.0 mi Calm Calm - N/A   Clear
5:44 AM 24.8 °F - 21.2 °F 86% 30.01 in 3.0 mi Calm Calm - N/A   Scattered Clouds
5:47 AM 24.8 °F - 21.2 °F 86% 30.01 in 1.5 mi Calm Calm - N/A   Mostly Cloudy
5:53 AM 26.1 °F - 21.9 °F 84% 30.01 in 1.5 mi Calm Calm - N/A   Mostly Cloudy
6:53 AM 25.0 °F - 21.9 °F 88% 30.00 in 1.5 mi Calm Calm - N/A   Mostly Cloudy
7:00 AM 24.8 °F - 21.2 °F 86% 30.00 in 1.5 mi Calm Calm - N/A   Scattered Clouds
7:53 AM 30.0 °F 26.5 °F 30.0 °F 100% 30.01 in 1.5 mi South 3.5 mph - N/A   Scattered Clouds
8:45 AM 37.4 °F 32.1 °F 33.8 °F 87% 30.02 in 5.0 mi South 6.9 mph - N/A   Haze
8:53 AM 39.9 °F 35.1 °F 33.1 °F 77% 30.02 in 6.0 mi South 6.9 mph - N/A   Haze
9:53 AM 39.9 °F 36.7 °F 35.1 °F 83% 30.02 in 6.0 mi South 4.6 mph - N/A   Haze
10:53 AM 43.0 °F 40.3 °F 34.0 °F 71% 30.02 in 8.0 mi Variable 4.6 mph - N/A   Clear
11:53 AM 44.1 °F 39.5 °F 33.1 °F 65% 29.99 in 9.0 mi SSW 8.1 mph - N/A   Clear
12:53 PM 45.0 °F 42.6 °F 33.1 °F 63% 29.98 in 9.0 mi SSW 4.6 mph - N/A   Clear
1:53 PM 43.0 °F 38.8 °F 34.0 °F 71% 29.96 in 9.0 mi South 6.9 mph - N/A   Clear
2:53 PM 44.1 °F 40.1 °F 35.1 °F 71% 29.94 in 10.0 mi South 6.9 mph - N/A   Clear
3:53 PM 44.1 °F 41.5 °F 35.1 °F 71% 29.94 in 10.0 mi South 4.6 mph - N/A   Clear
4:53 PM 42.1 °F 39.2 °F 33.1 °F 70% 29.94 in 10.0 mi South 4.6 mph - N/A   Clear
5:53 PM 43.0 °F - 33.1 °F 68% 29.95 in 10.0 mi Calm Calm - N/A   Clear
6:53 PM 39.0 °F - 32.0 °F 76% 29.94 in 10.0 mi Calm Calm - N/A   Clear
7:53 PM 35.1 °F - 30.0 °F 82% 29.94 in 8.0 mi Calm Calm - N/A   Clear
8:53 PM 35.1 °F - 30.9 °F 85% 29.94 in 6.0 mi Calm Calm - N/A   Scattered Clouds
9:53 PM 36.0 °F - 32.0 °F 86% 29.94 in 6.0 mi Calm Calm - N/A   Overcast
10:53 PM 35.1 °F - 32.0 °F 89% 29.93 in 6.0 mi Calm Calm - N/A   Overcast
11:53 PM 36.0 °F - 32.0 °F 86% 29.92 in 6.0 mi Calm Calm - N/A   Overcast